User: anonymous   Login
Location: Hartman Creek State Park
(44.3257°N, 89.2134°W)
Time: 14:24:07
(UTC-05:00)
Language:

Terra - Orbit

View from above orbital plane
View from above orbital plane
View from above satellite
View from above satellite

Ground track
Ground track

The orbit data is extracted from the following two-line orbital elements,

1 25994U 99068A   15239.22264235  .00000064  00000-0  24218-4 0  9998
2 25994 098.2081 312.7791 0000996 082.1044 278.0266 14.57126476834562
Epoch (UTC): 27 August 2015 05:20:36
Eccentricity: 0.0000996
inclination: 98.2081°
perigee height: 702 km
apogee height: 703 km
right ascension of ascending node: 312.7791°
argument of perigee: 82.1044°
revolutions per day: 14.57126476
mean anomaly at epoch: 278.0266°
orbit number at epoch: 83456

The dashed part of the orbit path shows where the satellite is in the earth's shadow,  

DLR